Location: Unspecified
(51.5147°N, 7.4673°E)
Time: 13:10:40
(UTC+01:00)

A-11 Canister half - Pass Details

Date: 22 February 2026
Orbit: 1513 x 1686 km, 47.2° (Epoch: 17 March)

Event Time Altitude Azimuth Distance (km) Brightness Sun altitude
Rises 21:58:04 0° 250° (WSW) 4,938 12.0 -36.5°
Reaches altitude 10° 22:01:16 10° 247° (WSW) 3,947 11.4 -36.9°
Enters shadow 22:09:06 55° 219° (SW) 1,949 9.3 -37.9°
Maximum altitude 22:11:16 67° 169° (SSE) 1,783 - -38.2°
Drops below altitude 10° 22:21:02 10° 90° (E) 3,856 - -39.3°
Sets 22:24:08 0° 88° (E) 4,820 - -39.7°
